Location: Wells
(51.2093°N, 2.6446°W)
Time: 00:35:30
(UTC+01:00)

STARS - Pass Details

Date: 16 March 2026
Orbit: 575 x 588 km, 98.1° (Epoch: 13 April)

Event Time Altitude Azimuth Distance (km) Brightness Sun altitude
Rises 02:20:09 0° 15° (NNE) 2,802 ? -34.4°
Reaches altitude 10° 02:22:19 10° 16° (NNE) 1,898 ? -34.2°
Enters shadow 02:23:23 18° 18° (NNE) 1,465 ? -34.1°
